STARLINK-34784 (65458 NORAD) Tracking and Keplerian Element Data

This shows tracking and keplerian element data for the satellite.

Feedback or suggestion? Click here.




ElementValue
Catalog65458
NameSTARLINK-34784
Epoch Orbit1782
Epoch Day354.18160267
Epoch Year2025
RAAN267.2891
Inclination53.1589
Eccentricity0.0001554
Argument of Perigee39.3506
Mean Anonmoly320.7607
Mean Motion15.30209887
Decay Rate0.00015709
L11 65458U 25195A 25354.18160267 .00015709 00000+0 54123-3 0 9999
L22 65458 53.1589 267.2891 0001554 39.3506 320.7607 15.30209887 17823



Live tracking and technical data element details for STARLINK-34784 (NORAD 65458). STARLINK-34784 can be tracked NOW for your location showing map with azimuth and elevation plus other details from your city location.







IsCatalogInMostPopularTable: catalog: 65458, numindb: 5
Update: records affected: 1



GetName: 65458 STARLINK-34784

Hit Count: updated at: Mon, 09 Feb 2026 08:51:19 GMT